Location: Buchli
(38.2149°N, 122.3327°W)
Time: 06:01:28
(UTC+00:00)

Daily predictions for brighter satellites

Satellite Brightness Start Highest point End
(mag) Time Altitude Azimuth Time Altitude Azimuth Time Altitude Azimuth
deb Chang Zheng 4 3.7 12:01:21 10° N 12:05:36 56° WNW 12:07:02 37° SW
Cosmos 1356 4.3 12:05:03 10° NNW 12:07:24 33° NW 12:07:24 33° NW
IDEFIX/ARIANE 42P 2.9 12:06:05 10° N 12:11:03 46° WNW 12:13:24 28° SW
Meteor 1-12 Rocket 4.5 12:08:33 10° NNW 12:14:14 50° W 12:19:49 10° SSW
PAYLOAD A 4.1 12:12:27 10° NNE 12:17:50 87° ESE 12:22:59 10° SSW
Cosmos 1378 4.2 12:16:34 10° SSE 12:20:09 47° E 12:23:45 10° NNE
Cosmos 1300 Rocket 4.4 12:20:06 10° NNW 12:23:50 29° W 12:24:57 25° WSW
BREEZE-M DEB (TANK) 3.7 12:28:09 14° WNW 12:29:29 17° NNW 12:31:11 10° NNE
ADEOS 3.5 12:29:08 10° N 12:34:20 71° WNW 12:39:31 10° SSW
PSLV R/B 4.0 12:30:12 10° N 12:34:21 43° WNW 12:37:41 15° SW
CZ-4B R/B 2.1 12:33:21 12° SSW 12:36:16 33° W 12:39:28 10° NNW
Cosmos 1378 Rocket 4.1 12:35:20 16° SW 12:38:26 39° WNW 12:42:34 10° N
Cosmos 1943 3.2 12:33:29 10° NNW 12:39:14 89° WSW 12:44:55 10° SSE
Lacrosse 4 Rocket 3.9 12:37:51 10° SSE 12:41:14 22° ESE 12:44:42 10° NE
Cosmos 1484 Rocket 4.0 12:37:47 10° NNE 12:41:22 41° E 12:44:54 10° S
Cosmos 1689 Rocket 2.1 12:40:29 10° S 12:43:24 53° W 12:46:21 10° NNW
Cosmos 1553 Rocket 4.4 12:39:35 10° N 12:45:56 72° E 12:52:18 10° SSE
Cosmos 1805 3.4 12:43:00 10° N 12:46:54 76° E 12:50:45 10° S
Okean 2 3.4 12:43:49 10° S 12:47:55 84° E 12:52:02 10° N
STARLINK-1170 4.2 12:46:33 10° SSW 12:50:12 48° SE 12:53:54 10° ENE
STARLINK-1132 4.2 12:47:03 10° SSW 12:50:36 46° SE 12:54:11 10° ENE
Cosmos 1655 Rocket 4.5 12:44:19 10° S 12:50:37 68° E 12:56:54 10° NNE
H-2A R/B 3.1 12:49:29 10° NNE 12:53:23 54° E 12:57:10 10° S
STARLINK-1177 4.0 12:50:30 10° SSW 12:54:05 51° SE 12:57:42 10° ENE
STARLINK-1168 4.1 12:51:37 10° SSW 12:55:04 47° SE 12:58:32 10° ENE
USA 267 4.3 12:49:47 10° NNE 12:55:27 33° NNW 13:01:08 10° W
STARLINK-26 3.2 12:53:01 10° NW 12:56:30 80° NE 12:59:56 10° SE
STARLINK-1164 4.0 12:53:42 10° SSW 12:57:10 50° SE 13:00:40 10° ENE
STARLINK-1167 3.9 12:53:35 10° SSW 12:57:12 55° SE 13:00:51 10° ENE
CZ-4B R/B 3.6 12:54:21 10° N 12:58:11 82° WNW 13:01:51 10° SSW
ATLAS 3B R/B 3.9 12:53:11 11° W 12:58:17 24° NW 13:03:34 10° NNE
STARLINK 1040 4.0 12:56:10 10° NW 12:58:46 39° NE 13:01:21 10° ESE
STARLINK-1182 3.9 12:55:47 10° SSW 12:59:17 53° SE 13:02:48 10° ENE
STARLINK-1179 3.0 12:56:38 10° SW 12:59:44 75° SE 13:02:50 10° NE
STARLINK-1176 3.0 12:57:06 10° SW 13:00:11 76° SE 13:03:17 10° NE
Lacrosse 5 2.7 12:56:06 10° SSW 13:00:59 51° SE 13:05:53 10° NE
STARLINK-1173 3.0 12:59:40 10° SW 13:02:46 75° SE 13:05:52 10° NE
STARLINK-1136 3.0 13:00:08 10° SW 13:03:13 75° SE 13:06:19 10° NE
STARLINK-1172 3.7 13:00:17 10° SW 13:03:48 59° SE 13:07:21 10° NE
STARLINK-1145 3.6 13:02:26 10° SW 13:05:59 63° SE 13:09:33 10° NE
Aureole 3 Rocket 2.4 13:02:26 10° NNW 13:06:14 67° W 13:09:21 10° S
STARLINK-1161 3.6 13:04:37 10° SW 13:08:11 66° SE 13:11:46 10° NE
Cosmos 1844 Rocket 3.3 13:02:40 10° S 13:08:12 62° ESE 13:13:48 10° NNE
STARLINK-22 4.5 13:05:18 10° NW 13:08:21 38° NE 13:11:25 10° ESE
STARLINK-1163 3.5 13:05:04 10° SW 13:08:47 73° SE 13:12:30 10° NE
Shenzhou-11 Module 2.4 13:06:48 10° W 13:09:14 41° NNW 13:11:42 10° ENE
STARLINK-1183 3.0 13:06:39 10° SW 13:09:45 77° SE 13:12:51 10° NE
STARLINK-1181 2.9 13:07:06 10° SW 13:10:12 78° SE 13:13:19 10° NE
STARLINK-1160 3.5 13:06:49 10° SW 13:10:23 70° SE 13:13:59 10° NE
CZ-2C R/B 3.1 13:06:35 10° N 13:10:35 31° WNW 13:14:37 10° SW
STARLINK-1196 2.9 13:07:33 10° SW 13:10:39 79° SE 13:13:46 10° NE
STARLINK-1186 2.9 13:07:59 10° SW 13:11:05 79° SE 13:14:11 10° NE
Cosmos 1437 Rocket 3.8 13:07:58 10° SW 13:11:32 28° WNW 13:15:05 10° NNW
STARLINK-1185 2.9 13:08:26 10° SW 13:11:33 80° SE 13:14:39 10° NE
STARLINK-1175 2.9 13:08:53 10° SW 13:11:58 81° SE 13:15:05 10° NE
PSLV R/B 4.1 13:07:57 10° S 13:12:03 52° W 13:16:09 10° NNW
STARLINK-48 3.9 13:08:18 10° NW 13:12:11 65° NE 13:16:03 10° ESE
STARLINK-1147 2.9 13:09:21 10° SW 13:12:27 82° SE 13:15:34 10° NE
STARLINK-1149 3.5 13:08:41 10° SW 13:12:29 80° SE 13:16:19 10° NE
Meteor PRIRODA 3.8 13:08:50 10° NNE 13:12:31 81° ESE 13:16:13 10° S
STARLINK-1146 2.9 13:09:48 10° SW 13:12:54 83° SE 13:16:01 10° NE
STARLINK-1152 2.9 13:10:15 10° SW 13:13:21 84° SE 13:16:27 10° NE
STARLINK-1195 2.9 13:10:41 10° SW 13:13:46 85° SE 13:16:53 10° NE
STARLINK-1137 2.9 13:11:08 10° SW 13:14:14 86° SE 13:17:22 10° NE
STARLINK-1142 2.8 13:11:35 10° SW 13:14:40 87° SSE 13:17:47 10° NE
CRYOSAT 2 4.4 13:11:29 10° N 13:16:19 67° W 13:21:07 10° SSW
Cosmos 1544 Rocket 4.1 13:11:56 10° N 13:16:22 67° E 13:20:45 10° SSE
